Miscellaneous Local Product
Issued by NWS Hastings, NE

Home | Current Version | Previous Version | Text Only | Print | Product List | Glossary Off
Versions: 1 2 3 4 5 6 7 8 9 10 11 12 13 14 15 16 17 18 19 20 21 22 23 24 25 26 27 28 29 30 31 32 33 34 35 36 37 38 39 40 41 42 43 44 45 46 47 48 49 50

931
AXUS43 KGID 141702
MISGRI

GID CWA HOURLY WEATHER ROUNDUP
NATIONAL WEATHER SERVICE HASTINGS NE
1100 AM CST THU DEC 14 2017

NOTE: "FAIR" INDICATES FEW OR NO CLOUDS BELOW 12,000 FEET WITH NO
SIGNIFICANT WEATHER AND/OR OBSTRUCTIONS TO VISIBILITY.

...SOUTH CENTRAL NEBRASKA...

CITY           SKY/WX    TMP DP  RH WIND       PRES   REMARKS
GRAND ISLAND   LGT RAIN  37  36  96 W9        30.09R WCI  30
KEARNEY        LGT RAIN  38  35  89 NW14      30.10S WCI  30
HASTINGS       MIX PCPN  37  33  85 NW15      30.10R WCI  28
ORD            LGT RAIN  36  34  92 NW10      30.07R WCI  28
YORK           CLOUDY    37  28  70 CALM      30.09R
AURORA         LGT SNOW  35  32  90 NW10      30.09R WCI  27
LEXINGTON      CLOUDY    41  32  71 NW15      30.11S
HOLDREGE       CLOUDY    39  34  82 NW14G22   30.11R WCI  31
HEBRON         CLOUDY    42  28  56 W9        30.10S

...NEBRASKA PANHANDLE...

CITY           SKY/WX    TMP DP  RH WIND       PRES   REMARKS
CHADRON        CLOUDY    36  24  62 NW22G32   30.19R WCI  25
ALLIANCE       CLOUDY    35  21  56 NW25G32   30.16R WCI  23
SCOTTSBLUFF    MOSUNNY   37  21  52 N35G44    30.21R WCI  24
SIDNEY         PTSUNNY   36  20  52 N35G46    30.18R WCI  22

...WESTERN AND NORTH CENTRAL NEBRASKA...

CITY           SKY/WX    TMP DP  RH WIND       PRES   REMARKS
VALENTINE      CLOUDY    35  31  85 NW17G29   30.11R WCI  25
AINSWORTH      LGT SNOW  33  33 100 NW16G25   30.09R WCI  22
ONEILL         LGT SNOW  33  33 100 CALM      30.07R
BROKEN BOW     LGT RAIN  37  34  89 NW16      30.09R WCI  28
IMPERIAL       PTSUNNY   42  24  49 N25G40    30.14R
NORTH PLATTE   CLOUDY    39  29  67 NW24G32   30.13R WCI  28
MCCOOK         CLOUDY    41  27  57 NW14      30.13R

...EASTERN NEBRASKA...

CITY           SKY/WX    TMP DP  RH WIND       PRES   REMARKS
NORFOLK        CLOUDY    36  25  64 NW9       30.05R WCI  29
SO SIOUX CITY  CLOUDY    36  27  69 CALM      30.07R
TEKAMAH        CLOUDY    39  26  59 NW10      30.08R WCI  32
COLUMBUS       CLOUDY    36  26  67 W6        30.09R WCI  31
ALBION         MIX PCPN  35  33  92 NW6       30.08R WCI  30
OMAHA EPPLEY   CLOUDY    40  24  53 W5        30.08S
OFFUTT AFB     CLOUDY    38  26  61 CALM      30.08R
MILLARD        CLOUDY    40  28  60 NW9       30.08S WCI  35
LINCOLN        MOSUNNY   42  26  53 NW10      30.10S
NEBRASKA CITY  CLOUDY    39  25  58 NW5       30.09R
BEATRICE       SUNNY     40  27  59 NW10      30.10R WCI  34
FALLS CITY     CLOUDY    39  25  57 NW3       30.10S

...NORTHERN KANSAS...

CITY           SKY/WX    TMP DP  RH WIND       PRES   REMARKS
GOODLAND       CLOUDY    41  26  55 NW24G35   30.15R
HILL CITY      CLOUDY    44  30  57 NW17G26   30.15R
NORTON         PTSUNNY   45  25  45 NW15G22   30.12S
PHILLIPSBURG   MOSUNNY   45  28  53 NW14G25   30.13S
SMITH CENTER   CLOUDY    41  28  60 NW15G22   30.12S
HAYS           MOSUNNY   44  29  55 NW14      30.14S
RUSSELL        PTSUNNY   44  29  55 NW13      30.13R
CONCORDIA      PTSUNNY   40  27  59 NW8       30.11S WCI  34
SALINA         MOSUNNY   44  27  51 N6        30.15S
TOPEKA         CLOUDY    41  28  60 NW9       30.12S



USA.gov is the U.S. government's official web portal to all federal, state and local government web resources and services.